Year,Month,Day,Hour,Minute,Value (Times are PST for temperature in C)
2014,08,24,00,00,18.50
2014,08,24,00,01,18.50
2014,08,24,00,02,18.60
2014,08,24,00,03,18.60
2014,08,24,00,04,18.60
2014,08,24,00,05,18.60
2014,08,24,00,06,18.60
2014,08,24,00,07,18.60
2014,08,24,00,08,18.60
2014,08,24,00,09,18.60
2014,08,24,00,10,18.60
2014,08,24,00,11,18.60
2014,08,24,00,12,18.60
2014,08,24,00,13,18.60
2014,08,24,00,14,18.60
2014,08,24,00,15,18.60
2014,08,24,00,16,18.60
2014,08,24,00,17,18.60
2014,08,24,00,18,18.60
2014,08,24,00,19,18.60
2014,08,24,00,20,18.60
2014,08,24,00,21,18.60
2014,08,24,00,22,18.60
2014,08,24,00,23,18.60
2014,08,24,00,24,18.60
2014,08,24,00,25,18.60
2014,08,24,00,26,18.70
2014,08,24,00,27,18.70
2014,08,24,00,28,18.70
2014,08,24,00,29,18.70
2014,08,24,00,30,18.70
2014,08,24,00,31,18.70
2014,08,24,00,32,18.70
2014,08,24,00,33,18.70
2014,08,24,00,34,18.70
2014,08,24,00,35,18.70
2014,08,24,00,36,18.70
2014,08,24,00,37,18.70
2014,08,24,00,38,18.70
2014,08,24,00,39,18.60
2014,08,24,00,40,18.60
2014,08,24,00,41,18.60
2014,08,24,00,42,18.60
2014,08,24,00,43,18.50
2014,08,24,00,44,18.50
2014,08,24,00,45,18.40
2014,08,24,00,46,18.40
2014,08,24,00,47,18.40
2014,08,24,00,48,18.40
2014,08,24,00,49,18.40
2014,08,24,00,50,18.40
2014,08,24,00,51,18.40
2014,08,24,00,52,18.40
2014,08,24,00,53,18.40
2014,08,24,00,54,18.40
2014,08,24,00,55,18.50
2014,08,24,00,56,18.50
2014,08,24,00,57,18.60
2014,08,24,00,58,18.60
2014,08,24,00,59,18.60
2014,08,24,01,00,18.70
2014,08,24,01,01,18.70
2014,08,24,01,02,18.70
2014,08,24,01,03,18.70
2014,08,24,01,04,18.80
2014,08,24,01,05,18.80
2014,08,24,01,06,18.80
2014,08,24,01,07,18.80
2014,08,24,01,08,18.80
2014,08,24,01,09,18.80
2014,08,24,01,10,18.80
2014,08,24,01,11,18.80
2014,08,24,01,12,18.80
2014,08,24,01,13,18.80
2014,08,24,01,14,18.80
2014,08,24,01,15,18.90
2014,08,24,01,16,18.90
2014,08,24,01,17,19.00
2014,08,24,01,18,19.00
2014,08,24,01,19,19.10
2014,08,24,01,20,19.10
2014,08,24,01,21,19.10
2014,08,24,01,22,19.10
2014,08,24,01,23,19.20
2014,08,24,01,24,19.20
2014,08,24,01,25,19.20
2014,08,24,01,26,19.20
2014,08,24,01,27,19.20
2014,08,24,01,28,19.10
2014,08,24,01,29,19.10
2014,08,24,01,30,19.10
2014,08,24,01,31,19.10
2014,08,24,01,32,19.10
2014,08,24,01,33,19.10
2014,08,24,01,34,19.10
2014,08,24,01,35,19.10
2014,08,24,01,36,19.00
2014,08,24,01,37,19.00
2014,08,24,01,38,19.00
2014,08,24,01,39,18.90
2014,08,24,01,40,18.90
2014,08,24,01,41,18.90
2014,08,24,01,42,18.80
2014,08,24,01,43,18.80
2014,08,24,01,44,18.70
2014,08,24,01,45,18.70
2014,08,24,01,46,18.70
2014,08,24,01,47,18.60
2014,08,24,01,48,18.60
2014,08,24,01,49,18.50
2014,08,24,01,50,18.50
2014,08,24,01,51,18.40
2014,08,24,01,52,18.30
2014,08,24,01,53,18.30
2014,08,24,01,54,18.20
2014,08,24,01,55,18.20
2014,08,24,01,56,18.10
2014,08,24,01,57,18.10
2014,08,24,01,58,18.00
2014,08,24,01,59,17.90
2014,08,24,02,00,17.90
2014,08,24,02,01,17.80
2014,08,24,02,02,17.80
2014,08,24,02,03,17.80
2014,08,24,02,04,17.70
2014,08,24,02,05,17.70
2014,08,24,02,06,17.60
2014,08,24,02,07,17.60
2014,08,24,02,08,17.60
2014,08,24,02,09,17.50
2014,08,24,02,10,17.50
2014,08,24,02,11,17.50
2014,08,24,02,12,17.40
2014,08,24,02,13,17.40
2014,08,24,02,14,17.40
2014,08,24,02,15,17.30
2014,08,24,02,16,17.30
2014,08,24,02,17,17.30
2014,08,24,02,18,17.30
2014,08,24,02,19,17.20
2014,08,24,02,20,17.20
2014,08,24,02,21,17.20
2014,08,24,02,22,17.10
2014,08,24,02,23,17.00
2014,08,24,02,24,16.90
2014,08,24,02,25,16.80
2014,08,24,02,26,16.70
2014,08,24,02,27,16.70
2014,08,24,02,28,16.60
2014,08,24,02,29,16.60
2014,08,24,02,30,16.50
2014,08,24,02,31,16.40
2014,08,24,02,32,16.40
2014,08,24,02,33,16.40
2014,08,24,02,34,16.30
2014,08,24,02,35,16.30
2014,08,24,02,36,16.20
2014,08,24,02,37,16.20
2014,08,24,02,38,16.10
2014,08,24,02,39,16.10
2014,08,24,02,40,16.00
2014,08,24,02,41,15.90
2014,08,24,02,42,15.90
2014,08,24,02,43,15.90
2014,08,24,02,44,15.80
2014,08,24,02,45,15.80
2014,08,24,02,46,15.70
2014,08,24,02,47,15.70
2014,08,24,02,48,15.60
2014,08,24,02,49,15.50
2014,08,24,02,50,15.40
2014,08,24,02,51,15.40
2014,08,24,02,52,15.30
2014,08,24,02,53,15.30
2014,08,24,02,54,15.20
2014,08,24,02,55,15.20
2014,08,24,02,56,15.10
2014,08,24,02,57,15.10
2014,08,24,02,58,15.10
2014,08,24,02,59,15.10
2014,08,24,03,00,15.00
2014,08,24,03,01,15.00
2014,08,24,03,02,15.00
2014,08,24,03,03,15.00
2014,08,24,03,04,15.00
2014,08,24,03,05,15.00
2014,08,24,03,06,15.00
2014,08,24,03,07,14.90
2014,08,24,03,08,14.90
2014,08,24,03,09,14.90
2014,08,24,03,10,14.90
2014,08,24,03,11,14.90
2014,08,24,03,12,14.90
2014,08,24,03,13,14.90
2014,08,24,03,14,14.80
2014,08,24,03,15,14.80
2014,08,24,03,16,14.80
2014,08,24,03,17,14.80
2014,08,24,03,18,14.80
2014,08,24,03,19,14.80
2014,08,24,03,20,14.80
2014,08,24,03,21,14.80
2014,08,24,03,22,14.80
2014,08,24,03,23,14.80
2014,08,24,03,24,14.80
2014,08,24,03,25,14.80
2014,08,24,03,26,14.80
2014,08,24,03,27,14.80
2014,08,24,03,28,14.80
2014,08,24,03,29,14.80
2014,08,24,03,30,14.80
2014,08,24,03,31,14.80
2014,08,24,03,32,14.80
2014,08,24,03,33,14.80
2014,08,24,03,34,14.80
2014,08,24,03,35,14.80
2014,08,24,03,36,14.80
2014,08,24,03,37,14.80
2014,08,24,03,38,14.80
2014,08,24,03,39,14.80
2014,08,24,03,40,14.80
2014,08,24,03,41,14.80
2014,08,24,03,42,14.80
2014,08,24,03,43,14.80
2014,08,24,03,44,14.80
2014,08,24,03,45,14.80
2014,08,24,03,46,14.80
2014,08,24,03,47,14.80
2014,08,24,03,48,14.80
2014,08,24,03,49,14.80
2014,08,24,03,50,14.80
2014,08,24,03,51,14.80
2014,08,24,03,52,14.80
2014,08,24,03,53,14.80
2014,08,24,03,54,14.80
2014,08,24,03,55,14.80
2014,08,24,03,56,14.70
2014,08,24,03,57,14.70
2014,08,24,03,58,14.70
2014,08,24,03,59,14.70
2014,08,24,04,00,14.70
2014,08,24,04,01,14.70
2014,08,24,04,02,14.70
2014,08,24,04,03,14.70
2014,08,24,04,04,14.70
2014,08,24,04,05,14.80
2014,08,24,04,06,14.80
2014,08,24,04,07,14.80
2014,08,24,04,08,14.80
2014,08,24,04,09,14.80
2014,08,24,04,10,14.80
2014,08,24,04,11,14.80
2014,08,24,04,12,14.80
2014,08,24,04,13,14.80
2014,08,24,04,14,14.80
2014,08,24,04,15,14.80
2014,08,24,04,16,14.80
2014,08,24,04,17,14.70
2014,08,24,04,18,14.70
2014,08,24,04,19,14.70
2014,08,24,04,20,14.70
2014,08,24,04,21,14.70
2014,08,24,04,22,14.70
2014,08,24,04,23,14.60
2014,08,24,04,24,14.60
2014,08,24,04,25,14.60
2014,08,24,04,26,14.60
2014,08,24,04,27,14.60
2014,08,24,04,28,14.60
2014,08,24,04,29,14.60
2014,08,24,04,30,14.60
2014,08,24,04,31,14.50
2014,08,24,04,32,14.50
2014,08,24,04,33,14.50
2014,08,24,04,34,14.50
2014,08,24,04,35,14.50
2014,08,24,04,36,14.40
2014,08,24,04,37,14.40
2014,08,24,04,38,14.40
2014,08,24,04,39,14.40
2014,08,24,04,40,14.40
2014,08,24,04,41,14.30
2014,08,24,04,42,14.30
2014,08,24,04,43,14.30
2014,08,24,04,44,14.30
2014,08,24,04,45,14.30
2014,08,24,04,46,14.30
2014,08,24,04,47,14.30
2014,08,24,04,48,14.30
2014,08,24,04,49,14.30
2014,08,24,04,50,14.30
2014,08,24,04,51,14.30
2014,08,24,04,52,14.30
2014,08,24,04,53,14.30
2014,08,24,04,54,14.20
2014,08,24,04,55,14.20
2014,08,24,04,56,14.20
2014,08,24,04,57,14.20
2014,08,24,04,58,14.20
2014,08,24,04,59,14.20
2014,08,24,05,00,14.20
2014,08,24,05,01,14.20
2014,08,24,05,02,14.10
2014,08,24,05,03,14.10
2014,08,24,05,04,14.10
2014,08,24,05,05,14.00
2014,08,24,05,06,14.00
2014,08,24,05,07,14.00
2014,08,24,05,08,14.00
2014,08,24,05,09,13.90
2014,08,24,05,10,13.90
2014,08,24,05,11,13.90
2014,08,24,05,12,13.90
2014,08,24,05,13,13.90
2014,08,24,05,14,13.90
2014,08,24,05,15,13.90
2014,08,24,05,16,13.90
2014,08,24,05,17,13.90
2014,08,24,05,18,13.90
2014,08,24,05,19,13.90
2014,08,24,05,20,13.90
2014,08,24,05,21,13.90
2014,08,24,05,22,13.90
2014,08,24,05,23,13.90
2014,08,24,05,24,14.00
2014,08,24,05,25,14.00
2014,08,24,05,26,14.00
2014,08,24,05,27,14.00
2014,08,24,05,28,14.00
2014,08,24,05,29,14.00
2014,08,24,05,30,14.00
2014,08,24,05,31,14.00
2014,08,24,05,32,14.00
2014,08,24,05,33,14.00
2014,08,24,05,34,14.10
2014,08,24,05,35,14.10
2014,08,24,05,36,14.10
2014,08,24,05,37,14.10
2014,08,24,05,38,14.00
2014,08,24,05,39,14.00
2014,08,24,05,40,14.00
2014,08,24,05,41,14.00
2014,08,24,05,42,14.00
2014,08,24,05,43,14.00
2014,08,24,05,44,14.00
2014,08,24,05,45,14.00
2014,08,24,05,46,14.00
2014,08,24,05,47,14.00
2014,08,24,05,48,14.00
2014,08,24,05,49,14.00
2014,08,24,05,50,14.00
2014,08,24,05,51,14.00
2014,08,24,05,52,14.00
2014,08,24,05,53,14.00
2014,08,24,05,54,14.00
2014,08,24,05,55,14.00
2014,08,24,05,56,14.00
2014,08,24,05,57,14.00
2014,08,24,05,58,14.00
2014,08,24,05,59,14.00
2014,08,24,06,00,13.90
2014,08,24,06,01,13.90
2014,08,24,06,02,13.90
2014,08,24,06,03,13.90
2014,08,24,06,04,13.90
2014,08,24,06,05,13.90
2014,08,24,06,06,13.90
2014,08,24,06,07,13.80
2014,08,24,06,08,13.80
2014,08,24,06,09,13.80
2014,08,24,06,10,13.80
2014,08,24,06,11,13.80
2014,08,24,06,12,13.80
2014,08,24,06,13,13.80
2014,08,24,06,14,13.80
2014,08,24,06,15,13.80
2014,08,24,06,16,13.80
2014,08,24,06,17,13.80
2014,08,24,06,18,13.80
2014,08,24,06,19,13.80
2014,08,24,06,20,13.70
2014,08,24,06,21,13.70
2014,08,24,06,22,13.70
2014,08,24,06,23,13.70
2014,08,24,06,24,13.60
2014,08,24,06,25,13.60
2014,08,24,06,26,13.60
2014,08,24,06,27,13.60
2014,08,24,06,28,13.60
2014,08,24,06,29,13.60
2014,08,24,06,30,13.60
2014,08,24,06,31,13.60
2014,08,24,06,32,13.60
2014,08,24,06,33,13.50
2014,08,24,06,34,13.50
2014,08,24,06,35,13.50
2014,08,24,06,36,13.50
2014,08,24,06,37,13.50
2014,08,24,06,38,13.40
2014,08,24,06,39,13.40
2014,08,24,06,40,13.40
2014,08,24,06,41,13.40
2014,08,24,06,42,13.40
2014,08,24,06,43,13.40
2014,08,24,06,44,13.40
2014,08,24,06,45,13.40
2014,08,24,06,46,13.40
2014,08,24,06,47,13.40
2014,08,24,06,48,13.40
2014,08,24,06,49,13.40
2014,08,24,06,50,13.40
2014,08,24,06,51,13.40
2014,08,24,06,52,13.40
2014,08,24,06,53,13.40
2014,08,24,06,54,13.40
2014,08,24,06,55,13.40
2014,08,24,06,56,13.40
2014,08,24,06,57,13.40
2014,08,24,06,58,13.40
2014,08,24,06,59,13.40
2014,08,24,07,00,13.40
2014,08,24,07,01,13.30
2014,08,24,07,02,13.30
2014,08,24,07,03,13.30
2014,08,24,07,04,13.40
2014,08,24,07,05,13.40
2014,08,24,07,06,13.40
2014,08,24,07,07,13.40
2014,08,24,07,08,13.40
2014,08,24,07,09,13.40
2014,08,24,07,10,13.40
2014,08,24,07,11,13.40
2014,08,24,07,12,13.40
2014,08,24,07,13,13.40
2014,08,24,07,14,13.40
2014,08,24,07,15,13.40
2014,08,24,07,16,13.40
2014,08,24,07,17,13.30
2014,08,24,07,18,13.40
2014,08,24,07,19,13.40
2014,08,24,07,20,13.40
2014,08,24,07,21,13.40
2014,08,24,07,22,13.40
2014,08,24,07,23,13.40
2014,08,24,07,24,13.40
2014,08,24,07,25,13.40
2014,08,24,07,26,13.40
2014,08,24,07,27,13.40
2014,08,24,07,28,13.40
2014,08,24,07,29,13.50
2014,08,24,07,30,13.50
2014,08,24,07,31,13.50
2014,08,24,07,32,13.60
2014,08,24,07,33,13.70
2014,08,24,07,34,13.70
2014,08,24,07,35,13.80
2014,08,24,07,36,13.80
2014,08,24,07,37,13.90
2014,08,24,07,38,14.00
2014,08,24,07,39,14.00
2014,08,24,07,40,14.10
2014,08,24,07,41,14.10
2014,08,24,07,42,14.20
2014,08,24,07,43,14.20
2014,08,24,07,44,14.20
2014,08,24,07,45,14.30
2014,08,24,07,46,14.30
2014,08,24,07,47,14.30
2014,08,24,07,48,14.30
2014,08,24,07,49,14.30
2014,08,24,07,50,14.40
2014,08,24,07,51,14.40
2014,08,24,07,52,14.40
2014,08,24,07,53,14.40
2014,08,24,07,54,14.40
2014,08,24,07,55,14.40
2014,08,24,07,56,14.50
2014,08,24,07,57,14.50
2014,08,24,07,58,14.60
2014,08,24,07,59,14.60
2014,08,24,08,00,14.60
2014,08,24,08,01,14.60
2014,08,24,08,02,14.60
2014,08,24,08,03,14.60
2014,08,24,08,04,14.60
2014,08,24,08,05,14.60
2014,08,24,08,06,14.60
2014,08,24,08,07,14.60
2014,08,24,08,08,14.60
2014,08,24,08,09,14.60
2014,08,24,08,10,14.60
2014,08,24,08,11,14.60
2014,08,24,08,12,14.60
2014,08,24,08,13,14.60
2014,08,24,08,14,14.70
2014,08,24,08,15,14.70
2014,08,24,08,16,14.70
2014,08,24,08,17,14.70
2014,08,24,08,18,14.70
2014,08,24,08,19,14.80
2014,08,24,08,20,14.80
2014,08,24,08,21,14.80
2014,08,24,08,22,14.80
2014,08,24,08,23,14.90
2014,08,24,08,24,14.90
2014,08,24,08,25,14.90
2014,08,24,08,26,14.90
2014,08,24,08,27,14.90
2014,08,24,08,28,14.90
2014,08,24,08,29,14.90
2014,08,24,08,30,14.90
2014,08,24,08,31,14.90
2014,08,24,08,32,14.90
2014,08,24,08,33,14.80
2014,08,24,08,34,14.80
2014,08,24,08,35,14.80
2014,08,24,08,36,14.80
2014,08,24,08,37,14.80
2014,08,24,08,38,14.80
2014,08,24,08,39,14.90
2014,08,24,08,40,14.90
2014,08,24,08,41,15.00
2014,08,24,08,42,15.00
2014,08,24,08,43,15.10
2014,08,24,08,44,15.10
2014,08,24,08,45,15.20
2014,08,24,08,46,15.30
2014,08,24,08,47,15.30
2014,08,24,08,48,15.40
2014,08,24,08,49,15.40
2014,08,24,08,50,15.50
2014,08,24,08,51,15.60
2014,08,24,08,52,15.70
2014,08,24,08,53,15.80
2014,08,24,08,54,15.90
2014,08,24,08,55,16.00
2014,08,24,08,56,16.20
2014,08,24,08,57,16.30
2014,08,24,08,58,16.40
2014,08,24,08,59,16.60
2014,08,24,09,00,16.70
2014,08,24,09,01,16.80
2014,08,24,09,02,16.90
2014,08,24,09,03,17.00
2014,08,24,09,04,17.10
2014,08,24,09,05,17.20
2014,08,24,09,06,17.20
2014,08,24,09,07,17.30
2014,08,24,09,08,17.30
2014,08,24,09,09,17.30
2014,08,24,09,10,17.40
2014,08,24,09,11,17.40
2014,08,24,09,12,17.40
2014,08,24,09,13,17.50
2014,08,24,09,14,17.60
2014,08,24,09,15,17.70
2014,08,24,09,16,17.70
2014,08,24,09,17,17.90
2014,08,24,09,18,18.00
2014,08,24,09,19,18.20
2014,08,24,09,20,18.30
2014,08,24,09,21,18.40
2014,08,24,09,22,18.50
2014,08,24,09,23,18.60
2014,08,24,09,24,18.70
2014,08,24,09,25,18.80
2014,08,24,09,26,18.90
2014,08,24,09,27,19.00
2014,08,24,09,28,19.00
2014,08,24,09,29,19.10
2014,08,24,09,30,19.20
2014,08,24,09,31,19.20
2014,08,24,09,32,19.20
2014,08,24,09,33,19.30
2014,08,24,09,34,19.30
2014,08,24,09,35,19.40
2014,08,24,09,36,19.40
2014,08,24,09,37,19.50
2014,08,24,09,38,19.60
2014,08,24,09,39,19.60
2014,08,24,09,40,19.60
2014,08,24,09,41,19.60
2014,08,24,09,42,19.60
2014,08,24,09,43,19.50
2014,08,24,09,44,19.50
2014,08,24,09,45,19.50
2014,08,24,09,46,19.50
2014,08,24,09,47,19.60
2014,08,24,09,48,19.60
2014,08,24,09,49,19.60
2014,08,24,09,50,19.70
2014,08,24,09,51,19.80
2014,08,24,09,52,19.80
2014,08,24,09,53,19.80
2014,08,24,09,54,19.90
2014,08,24,09,55,20.00
2014,08,24,09,56,20.00
2014,08,24,09,57,20.10
2014,08,24,09,58,20.20
2014,08,24,09,59,20.30
2014,08,24,10,00,20.40
2014,08,24,10,01,20.50
2014,08,24,10,02,20.50
2014,08,24,10,03,20.60
2014,08,24,10,04,20.60
2014,08,24,10,05,20.70
2014,08,24,10,06,20.70
2014,08,24,10,07,20.60
2014,08,24,10,08,20.50
2014,08,24,10,09,20.30
2014,08,24,10,10,20.20
2014,08,24,10,11,20.10
2014,08,24,10,12,20.00
2014,08,24,10,13,19.90
2014,08,24,10,14,19.80
2014,08,24,10,15,19.80
2014,08,24,10,16,19.80
2014,08,24,10,17,19.80
2014,08,24,10,18,19.80
2014,08,24,10,19,19.80
2014,08,24,10,20,19.80
2014,08,24,10,21,19.90
2014,08,24,10,22,20.00
2014,08,24,10,23,20.00
2014,08,24,10,24,20.20
2014,08,24,10,25,20.20
2014,08,24,10,26,20.20
2014,08,24,10,27,20.20
2014,08,24,10,28,20.10
2014,08,24,10,29,20.10
2014,08,24,10,30,20.10
2014,08,24,10,31,20.10
2014,08,24,10,32,20.20
2014,08,24,10,33,20.20
2014,08,24,10,34,20.30
2014,08,24,10,35,20.30
2014,08,24,10,36,20.20
2014,08,24,10,37,20.10
2014,08,24,10,38,20.00
2014,08,24,10,39,20.00
2014,08,24,10,40,19.90
2014,08,24,10,41,19.80
2014,08,24,10,42,19.80
2014,08,24,10,43,19.80
2014,08,24,10,44,19.90
2014,08,24,10,45,19.90
2014,08,24,10,46,20.00
2014,08,24,10,47,20.00
2014,08,24,10,48,20.00
2014,08,24,10,49,20.00
2014,08,24,10,50,20.20
2014,08,24,10,51,20.30
2014,08,24,10,52,20.30
2014,08,24,10,53,20.40
2014,08,24,10,54,20.40
2014,08,24,10,55,20.40
2014,08,24,10,56,20.30
2014,08,24,10,57,20.40
2014,08,24,10,58,20.50
2014,08,24,10,59,20.60
2014,08,24,11,00,20.60
2014,08,24,11,01,20.60
2014,08,24,11,02,20.60
2014,08,24,11,03,20.70
2014,08,24,11,04,20.70
2014,08,24,11,05,20.70
2014,08,24,11,06,20.80
2014,08,24,11,07,20.80
2014,08,24,11,08,20.80
2014,08,24,11,09,20.80
2014,08,24,11,10,20.80
2014,08,24,11,11,20.80
2014,08,24,11,12,20.80
2014,08,24,11,13,20.90
2014,08,24,11,14,20.90
2014,08,24,11,15,20.90
2014,08,24,11,16,20.90
2014,08,24,11,17,20.90
2014,08,24,11,18,20.90
2014,08,24,11,19,20.80
2014,08,24,11,20,20.70
2014,08,24,11,21,20.70
2014,08,24,11,22,20.60
2014,08,24,11,23,20.60
2014,08,24,11,24,20.60
2014,08,24,11,25,20.60
2014,08,24,11,26,20.50
2014,08,24,11,27,20.60
2014,08,24,11,28,20.60
2014,08,24,11,29,20.60
2014,08,24,11,30,20.60
2014,08,24,11,31,20.70
2014,08,24,11,32,20.70
2014,08,24,11,33,20.80
2014,08,24,11,34,20.80
2014,08,24,11,35,20.80
2014,08,24,11,36,20.80
2014,08,24,11,37,20.80
2014,08,24,11,38,20.90
2014,08,24,11,39,20.90
2014,08,24,11,40,20.90
2014,08,24,11,41,20.90
2014,08,24,11,42,21.00
2014,08,24,11,43,21.00
2014,08,24,11,44,21.10
2014,08,24,11,45,21.20
2014,08,24,11,46,21.20
2014,08,24,11,47,21.30
2014,08,24,11,48,21.30
2014,08,24,11,49,21.30
2014,08,24,11,50,21.30
2014,08,24,11,51,21.30
2014,08,24,11,52,21.20
2014,08,24,11,53,21.20
2014,08,24,11,54,21.20
2014,08,24,11,55,21.20
2014,08,24,11,56,21.20
2014,08,24,11,57,21.30
2014,08,24,11,58,21.30
2014,08,24,11,59,21.40
2014,08,24,12,00,21.40
2014,08,24,12,01,21.40
2014,08,24,12,02,21.40
2014,08,24,12,03,21.50
2014,08,24,12,04,21.40
2014,08,24,12,05,21.40
2014,08,24,12,06,21.40
2014,08,24,12,07,21.40
2014,08,24,12,08,21.40
2014,08,24,12,09,21.40
2014,08,24,12,10,21.40
2014,08,24,12,11,21.40
2014,08,24,12,12,21.50
2014,08,24,12,13,21.50
2014,08,24,12,14,21.50
2014,08,24,12,15,21.40
2014,08,24,12,16,21.40
2014,08,24,12,17,21.40
2014,08,24,12,18,21.40
2014,08,24,12,19,21.30
2014,08,24,12,20,21.40
2014,08,24,12,21,21.40
2014,08,24,12,22,21.50
2014,08,24,12,23,21.50
2014,08,24,12,24,21.50
2014,08,24,12,25,21.40
2014,08,24,12,26,21.40
2014,08,24,12,27,21.40
2014,08,24,12,28,21.50
2014,08,24,12,29,21.40
2014,08,24,12,30,21.40
2014,08,24,12,31,21.40
2014,08,24,12,32,21.50
2014,08,24,12,33,21.60
2014,08,24,12,34,21.70
2014,08,24,12,35,21.70
2014,08,24,12,36,21.70
2014,08,24,12,37,21.70
2014,08,24,12,38,21.70
2014,08,24,12,39,21.60
2014,08,24,12,40,21.70
2014,08,24,12,41,21.70
2014,08,24,12,42,21.80
2014,08,24,12,43,21.80
2014,08,24,12,44,21.80
2014,08,24,12,45,21.80
2014,08,24,12,46,21.80
2014,08,24,12,47,21.80
2014,08,24,12,48,21.80
2014,08,24,12,49,21.80
2014,08,24,12,50,21.80
2014,08,24,12,51,21.80
2014,08,24,12,52,21.80
2014,08,24,12,53,21.80
2014,08,24,12,54,21.80
2014,08,24,12,55,21.80
2014,08,24,12,56,21.80
2014,08,24,12,57,21.90
2014,08,24,12,58,21.90
2014,08,24,12,59,22.00
2014,08,24,13,00,22.00
2014,08,24,13,01,22.00
2014,08,24,13,02,21.90
2014,08,24,13,03,21.90
2014,08,24,13,04,21.90
2014,08,24,13,05,21.90
2014,08,24,13,06,21.90
2014,08,24,13,07,21.90
2014,08,24,13,08,21.90
2014,08,24,13,09,21.90
2014,08,24,13,10,22.00
2014,08,24,13,11,22.00
2014,08,24,13,12,22.10
2014,08,24,13,13,22.10
2014,08,24,13,14,22.10
2014,08,24,13,15,22.20
2014,08,24,13,16,22.20
2014,08,24,13,17,22.30
2014,08,24,13,18,22.30
2014,08,24,13,19,22.30
2014,08,24,13,20,22.30
2014,08,24,13,21,22.30
2014,08,24,13,22,22.30
2014,08,24,13,23,22.30
2014,08,24,13,24,22.30
2014,08,24,13,25,22.40
2014,08,24,13,26,22.40
2014,08,24,13,27,22.40
2014,08,24,13,28,22.40
2014,08,24,13,29,22.30
2014,08,24,13,30,22.20
2014,08,24,13,31,22.20
2014,08,24,13,32,22.20
2014,08,24,13,33,22.20
2014,08,24,13,34,22.20
2014,08,24,13,35,22.20
2014,08,24,13,36,22.20
2014,08,24,13,37,22.10
2014,08,24,13,38,22.10
2014,08,24,13,39,22.10
2014,08,24,13,40,22.10
2014,08,24,13,41,22.20
2014,08,24,13,42,22.20
2014,08,24,13,43,22.20
2014,08,24,13,44,22.10
2014,08,24,13,45,22.10
2014,08,24,13,46,22.10
2014,08,24,13,47,22.10
2014,08,24,13,48,22.10
2014,08,24,13,49,22.10
2014,08,24,13,50,22.20
2014,08,24,13,51,22.30
2014,08,24,13,52,22.40
2014,08,24,13,53,22.50
2014,08,24,13,54,22.50
2014,08,24,13,55,22.60
2014,08,24,13,56,22.70
2014,08,24,13,57,22.80
2014,08,24,13,58,22.80
2014,08,24,13,59,22.80
2014,08,24,14,00,22.90
2014,08,24,14,01,22.90
2014,08,24,14,02,23.00
2014,08,24,14,03,23.10
2014,08,24,14,04,23.10
2014,08,24,14,05,23.10
2014,08,24,14,06,23.10
2014,08,24,14,07,23.10
2014,08,24,14,08,23.10
2014,08,24,14,09,23.10
2014,08,24,14,10,23.20
2014,08,24,14,11,23.20
2014,08,24,14,12,23.20
2014,08,24,14,13,23.10
2014,08,24,14,14,23.10
2014,08,24,14,15,23.10
2014,08,24,14,16,23.10
2014,08,24,14,17,23.10
2014,08,24,14,18,23.10
2014,08,24,14,19,23.10
2014,08,24,14,20,23.20
2014,08,24,14,21,23.20
2014,08,24,14,22,23.30
2014,08,24,14,23,23.30
2014,08,24,14,24,23.30
2014,08,24,14,25,23.30
2014,08,24,14,26,23.30
2014,08,24,14,27,23.30
2014,08,24,14,28,23.40
2014,08,24,14,29,23.40
2014,08,24,14,30,23.50
2014,08,24,14,31,23.50
2014,08,24,14,32,23.60
2014,08,24,14,33,23.70
2014,08,24,14,34,23.70
2014,08,24,14,35,23.80
2014,08,24,14,36,23.80
2014,08,24,14,37,23.90
2014,08,24,14,38,23.90
2014,08,24,14,39,23.90
2014,08,24,14,40,23.90
2014,08,24,14,41,24.00
2014,08,24,14,42,24.10
2014,08,24,14,43,24.20
2014,08,24,14,44,24.20
2014,08,24,14,45,24.20
2014,08,24,14,46,24.30
2014,08,24,14,47,24.30
2014,08,24,14,48,24.30
2014,08,24,14,49,24.30
2014,08,24,14,50,24.30
2014,08,24,14,51,24.40
2014,08,24,14,52,24.40
2014,08,24,14,53,24.40
2014,08,24,14,54,24.50
2014,08,24,14,55,24.50
2014,08,24,14,56,24.60
2014,08,24,14,57,24.60
2014,08,24,14,58,24.70
2014,08,24,14,59,24.70
2014,08,24,15,00,24.60
2014,08,24,15,01,24.60
2014,08,24,15,02,24.60
2014,08,24,15,03,24.50
2014,08,24,15,04,24.50
2014,08,24,15,05,24.50
2014,08,24,15,06,24.50
2014,08,24,15,07,24.60
2014,08,24,15,08,24.70
2014,08,24,15,09,24.70
2014,08,24,15,10,24.70
2014,08,24,15,11,24.60
2014,08,24,15,12,24.60
2014,08,24,15,13,24.60
2014,08,24,15,14,24.60
2014,08,24,15,15,24.60
2014,08,24,15,16,24.60
2014,08,24,15,17,24.60
2014,08,24,15,18,24.70
2014,08,24,15,19,24.70
2014,08,24,15,20,24.70
2014,08,24,15,21,24.70
2014,08,24,15,22,24.70
2014,08,24,15,23,24.70
2014,08,24,15,24,24.70
2014,08,24,15,25,24.70
2014,08,24,15,26,24.70
2014,08,24,15,27,24.70
2014,08,24,15,28,24.60
2014,08,24,15,29,24.50
2014,08,24,15,30,24.50
2014,08,24,15,31,24.40
2014,08,24,15,32,24.40
2014,08,24,15,33,24.40
2014,08,24,15,34,24.40
2014,08,24,15,35,24.30
2014,08,24,15,36,24.30
2014,08,24,15,37,24.30
2014,08,24,15,38,24.40
2014,08,24,15,39,24.40
2014,08,24,15,40,24.50
2014,08,24,15,41,24.50
2014,08,24,15,42,24.50
2014,08,24,15,43,24.50
2014,08,24,15,44,24.50
2014,08,24,15,45,24.50
2014,08,24,15,46,24.50
2014,08,24,15,47,24.50
2014,08,24,15,48,24.40
2014,08,24,15,49,24.40
2014,08,24,15,50,24.40
2014,08,24,15,51,24.40
2014,08,24,15,52,24.40
2014,08,24,15,53,24.50
2014,08,24,15,54,24.50
2014,08,24,15,55,24.60
2014,08,24,15,56,24.70
2014,08,24,15,57,24.70
2014,08,24,15,58,24.70
2014,08,24,15,59,24.70
2014,08,24,16,00,24.70
2014,08,24,16,01,24.70
2014,08,24,16,02,24.70
2014,08,24,16,03,24.70
2014,08,24,16,04,24.60
2014,08,24,16,05,24.60
2014,08,24,16,06,24.60
2014,08,24,16,07,24.60
2014,08,24,16,08,24.60
2014,08,24,16,09,24.60
2014,08,24,16,10,24.60
2014,08,24,16,11,24.70
2014,08,24,16,12,24.70
2014,08,24,16,13,24.70
2014,08,24,16,14,24.60
2014,08,24,16,15,24.60
2014,08,24,16,16,24.60
2014,08,24,16,17,24.60
2014,08,24,16,18,24.60
2014,08,24,16,19,24.60
2014,08,24,16,20,24.60
2014,08,24,16,21,24.60
2014,08,24,16,22,24.60
2014,08,24,16,23,24.60
2014,08,24,16,24,24.50
2014,08,24,16,25,24.50
2014,08,24,16,26,24.50
2014,08,24,16,27,24.40
2014,08,24,16,28,24.40
2014,08,24,16,29,24.30
2014,08,24,16,30,24.30
2014,08,24,16,31,24.40
2014,08,24,16,32,24.40
2014,08,24,16,33,24.30
2014,08,24,16,34,24.30
2014,08,24,16,35,24.30
2014,08,24,16,36,24.30
2014,08,24,16,37,24.40
2014,08,24,16,38,24.40
2014,08,24,16,39,24.30
2014,08,24,16,40,24.40
2014,08,24,16,41,24.40
2014,08,24,16,42,24.40
2014,08,24,16,43,24.40
2014,08,24,16,44,24.40
2014,08,24,16,45,24.50
2014,08,24,16,46,24.50
2014,08,24,16,47,24.50
2014,08,24,16,48,24.60
2014,08,24,16,49,24.60
2014,08,24,16,50,24.60
2014,08,24,16,51,24.70
2014,08,24,16,52,24.70
2014,08,24,16,53,24.70
2014,08,24,16,54,24.70
2014,08,24,16,55,24.70
2014,08,24,16,56,24.70
2014,08,24,16,57,24.80
2014,08,24,16,58,24.80
2014,08,24,16,59,24.90
2014,08,24,17,00,24.90
2014,08,24,17,01,24.90
2014,08,24,17,02,25.00
2014,08,24,17,03,25.00
2014,08,24,17,04,25.00
2014,08,24,17,05,25.10
2014,08,24,17,06,25.10
2014,08,24,17,07,25.20
2014,08,24,17,08,25.20
2014,08,24,17,09,25.20
2014,08,24,17,10,25.20
2014,08,24,17,11,25.20
2014,08,24,17,12,25.20
2014,08,24,17,13,25.30
2014,08,24,17,14,25.30
2014,08,24,17,15,25.40
2014,08,24,17,16,25.40
2014,08,24,17,17,25.40
2014,08,24,17,18,25.40
2014,08,24,17,19,25.40